sat.trackr.live / text

‹ back to catalog

STARLINK-5446

NORAD 54789 · 2022-175AH

PAYLOAD ACTIVE UNKNOWN

§ Identity

Operator
Country
US
Launch date
2022-12-17
Launch site
AFETR
Launch vehicle
Mass (kg)
RCS (m²)

Purposes: comms

External: N2YO · Heavens-Above · Gunter

§ Orbital elements

Epoch: 2026-09-20T22:00:03.000096Z

Period
94.10 min
Inclination
53.1600°
Eccentricity
0.0001816
Mean motion
15.30367762 rev/d
Perigee alt
473.5 km
Apogee alt
476.0 km
Semi-major
6,852.9 km
B*
1.4788e-3
RAAN
215.2123°
Arg perigee
80.4199°
Mean anomaly
43.5780°
Rev number
570

§ Raw data

STARLINK-54461 54789U 22175AH  26263.91670139  .00043927  00000+0  14788-2 0  99992 54789  53.1600 215.2123 0001816  80.4199  43.5780 15.30367762  5702

JSON: /api/v1/satellites/54789 · /tle

For live sub-satellite position, see the globe view (requires WebGL).

§ Visibility from observer

Set your observer location to see the next 7 days of passes ≥ 10°. The values pass through the URL so the page stays shareable.

No JS? Fill the form by hand. The geolocation button needs JavaScript.